Flag for U.S.A. Weather past 2 weeks in Lafayette, Indiana, U.S.A.

Now
58 °F

Overcast.


Feels Like: 55 °F
Forecast: 54 / 74 °F
Wind: 12 mph from Northeast

Location: Purdue University Airport

Current Time: Jul 2, 2015 at 5:49:59 AM

Latest Report: Jul 2, 2015 at 4:54 AM


Visibility: 10 mi

Pressure: 29.91 "Hg

Humidity: 81%

Dew point: 52 °F

Location of LafayetteLocation

Historic Weather in Lafayette — Graph

°F

Lafayette temperature yesterday

Maximum temperature yesterday: 75 °F (at 4:54 PM)
Minimum temperature yesterday: 57 °F (at 6:54 AM)
Average temperature yesterday: 66 °F

Past Weeks' High & Low Weather Summary

 TemperatureHumidityPressure
High84 °F (Jun 22, 3:54 PM)100% (Jun 22, 12:54 AM)30.18 "Hg (Jun 22, 12:54 AM)
Low53 °F (Jun 28, 3:54 AM)45% (Jun 28, 2:54 PM)29.77 "Hg (Jun 29, 5:54 AM)
Average70 °F82%29.93 "Hg
* Reported Jun 17 6:54 AM — Jul 2 4:54 AM, Lafayette, Weather by CustomWeather, © 2015

Note: Actual official high and low records may vary slightly from our data, if they occured in-between our weather recording intervals... More about our weather records

Advertising

Lafayette weather history for previous 24 hours

 ConditionsComfort  
Time TempWeatherWind HumidityBarometerVisibility
4:54 AM
Thu, Jul 2
58 °FOvercast.12 mph81%29.91 "Hg10 mi
3:54 AM58 °FOvercast.6 mph84%29.93 "Hg10 mi
2:54 AM59 °FPassing clouds.9 mph78%29.93 "Hg10 mi
1:54 AM59 °FMostly cloudy.7 mph78%29.94 "Hg10 mi
12:54 AM60 °FOvercast.5 mph72%29.95 "Hg10 mi
11:54 PM
Wed, Jul 1
60 °FPassing clouds.10 mph75%29.95 "Hg10 mi
10:54 PM62 °FPassing clouds.8 mph70%29.95 "Hg10 mi
9:54 PM64 °FScattered clouds.9 mph70%29.93 "Hg10 mi
8:54 PM66 °FPassing clouds.13 mph73%29.93 "Hg10 mi
7:54 PM70 °FPartly sunny.10 mph71%29.91 "Hg10 mi
6:54 PM72 °FSunny.9 mph71%29.89 "Hg10 mi
5:54 PM72 °FMostly cloudy.6 mph73%29.90 "Hg10 mi
4:54 PM75 °FScattered clouds.No wind64%29.89 "Hg10 mi
3:54 PM74 °FPartly sunny.3 mph67%29.90 "Hg10 mi
2:54 PM74 °FBroken clouds.5 mph67%29.91 "Hg10 mi
1:54 PM72 °FBroken clouds.No wind68%29.92 "Hg10 mi
12:54 PM70 °FPartly sunny.No wind71%29.94 "Hg10 mi
11:54 AM69 °FScattered clouds.3 mph76%29.94 "Hg10 mi
10:54 AM67 °FSunny.5 mph76%29.93 "Hg10 mi
9:54 AM65 °FSunny.8 mph78%29.93 "Hg10 mi
8:54 AM63 °FSunny.5 mph84%29.93 "Hg10 mi
7:54 AM61 °FSunny.No wind90%29.93 "Hg10 mi
6:54 AM57 °FClear.5 mph96%29.90 "Hg8 mi
5:54 AM58 °FClear.No wind93%29.90 "Hg10 mi
Weather by CustomWeather, © 2015

See weather overviewHow to use our weather pages